Weather Roundup
Issued by NWS

Home | Current Version | Previous Version | Graphics & Text | Print | Product List | Glossary Off
Versions: 1 2 3 4 5 6 7 8 9 10 11 12 13 14 15 16 17 18 19 20 21 22 23 24 25 26 27 28 29 30 31 32 33 34 35 36 37 38 39 40 41 42 43 44 45 46 47 48 49 50

000
NZUS93 KARX 192259
HRRWXR

CURRENT HOURLY OBSERVATIONS ACROSS
MUCH OF THE UPPER MISSISSIPPI VALLEY
NATIONAL WEATHER SERVICE LA CROSSE WI
500 PM CST FRI DEC 19 2014


...SOUTHEAST MINNESOTA...


CITY           SKY/WX    TMP DP  RH WIND       PRES   REMARKS
ROCHESTER      CLOUDY    28  23  81 S9        30.21S WCI  19
ROCHESTER/MAYO CLOUDY    28  21  74 SE6       30.22S WCI  22
WINONA         CLOUDY    32  23  69 S7        30.27S WCI  26
AUSTIN         CLOUDY    28  25  86 S6        30.20S WCI  22
ALBERT LEA     CLOUDY    30  28  93 S7        30.19S FOG     WCI  23
DODGE CENTER   CLOUDY    28  27  93 S10       30.19S FOG     WCI  19
PRESTON        CLOUDY    27  22  80 S10       30.22S WCI  17
OWATONNA       PTCLDY    28  25  86 SE13      30.19S WCI  18
FARIBAULT      CLOUDY    30  27  86 SE7       30.19S WCI  23
$$

...ELSEWHERE IN MINNESOTA...


CITY           SKY/WX    TMP DP  RH WIND       PRES   REMARKS
MINNEAPOLIS    CLOUDY    29  24  82 SE9       30.20R WCI  20
INTNL FALLS    CLOUDY    24  19  81 SE9       30.11S WCI  14
DULUTH         FLURRIES  24  20  84 SE7       30.16R WCI  16
RED WING       CLOUDY    30  23  74 SE6       30.22S WCI  24
REDWOOD FALLS  CLOUDY    33  28  81 S13       30.12S WCI  24
MANKATO        CLOUDY    30  27  86 S10       30.18R WCI  21
WORTHINGTON    CLOUDY    30  27  86 S15       30.11S WCI  19
FAIRMONT       CLOUDY    32  25  74 S12       30.16S WCI  23
$$

...SOUTHWEST WISCONSIN...


CITY           SKY/WX    TMP DP  RH WIND       PRES   REMARKS
LA CROSSE      CLOUDY    30  20  66 S8        30.28R WCI  22
PRAIRIE DU CHI CLOUDY    29  20  68 CALM      30.30R
BOSCOBEL       CLOUDY    31  20  63 S3        30.30R
LONE ROCK      NOT AVBL
PLATTEVILLE    CLOUDY    29  22  75 CALM      30.29S
FORT MC COY    CLOUDY    29  20  68 S5        30.28R WCI  24
CAMP DOUGLAS   CLOUDY    27  25  93 SE5       30.28R WCI  21
VIROQUA        CLOUDY    28  22  78 S6        30.25R WCI  21
WIS DELLS      NOT AVBL
$$

...ELSEWHERE IN WISCONSIN...


CITY           SKY/WX    TMP DP  RH WIND       PRES   REMARKS
MILWAUKEE      CLOUDY    30  18  60 SW8       30.31R WCI  22
MADISON        CLOUDY    27  21  78 CALM      30.30R
GREEN BAY      CLEAR     28  20  71 CALM      30.29R
EAU CLAIRE     NOT AVBL
BLACK RVR FLS  CLOUDY    29  19  66 CALM      30.26R
MEDFORD        CLOUDY    22  20  93 S5        30.22R WCI  16
WAUSAU         PTCLDY    23  17  78 SW6       30.23R WCI  16
WIS RAPIDS     CLOUDY    24  19  81 SW7       30.29R WCI  16
MARSHFIELD     CLOUDY    24  20  84 S6        30.25R WCI  17
RICE LAKE      CLOUDY    27  21  79 SE8       30.23R WCI  18
$$

...NORTHEAST IOWA...


CITY           SKY/WX    TMP DP  RH WIND       PRES   REMARKS
DECORAH        CLOUDY    28  21  74 S6        30.24S WCI  22
MASON CITY     CLOUDY    30  27  88 SE10      30.22R WCI  21
CHARLES CITY   CLOUDY    28  25  86 SE9       30.24R WCI  20
OELWEIN        CLOUDY    28  23  80 S10       30.25S WCI  19
$$

...ELSEWHERE IN IOWA...


CITY           SKY/WX    TMP DP  RH WIND       PRES   REMARKS
DES MOINES     CLOUDY    33  28  81 SE6       30.21F WCI  28
IOWA CITY      CLOUDY    30  21  69 SE6       30.28F WCI  24
FORT DODGE     CLOUDY    32  27  80 S6        30.19S WCI  26
$$

...NORTHERN ILLINOIS...


CITY           SKY/WX    TMP DP  RH WIND       PRES   REMARKS
CHICAGO-OHARE  CLOUDY    31  22  69 S5        30.30S WCI  26
CHICAGO-MIDWAY CLOUDY    33  23  66 SW3       30.31S
MOLINE         MOCLDY    29  20  69 E7        30.27F WCI  22
ROCKFORD       CLOUDY    28  21  75 SW3       30.33S
PEORIA         MOCLDY    32  20  61 CALM      30.29S
$$

NOTE: "FAIR" INDICATES FEW OR NO CLOUDS BELOW 12,000 FEET WITH NO
SIGNIFICANT WEATHER AND/OR OBSTRUCTIONS TO VISIBILITY. WIND
SPEEDS ARE IN MILES-PER-HOUR.



USA.gov is the U.S. government's official web portal to all federal, state and local government web resources and services.